Погода Большие Уки

Погода Большие Уки : погода сейчас, прогноз погоды и архив. Всё, что Вы хотите узнать о погоде Большие Уки!

Хотите узнать прогноз погоды Большие Уки? Тогда Вам сюда: Погода Большие Уки

Поиск расширенной информации на нашем сайте:

Другие новости

Новости СМИ2

Главная страница сайта

Новости сайта

02.10.2013

Напоминаем, что на нашем новом сайте вы можете получить высокодетализированные прогнозы погоды по пунктам России, СНГ и мира (включающие важные для авиации метеовеличины, такие как направление и скорость ветра, видимость, явления погоды, количество и форма облачности, нижняя и верхняя граница облачности), а также ознакомиться с разнообразными материалами по авиационной метеорологии и подборкой полезных ссылок на эту тему.

Сайт Метеоцентр.Азия посвящён разработке технологий оптимизации авиаметеорологического обслуживания, включая проектирование и перспективное создание нескольких автоматизированных авиаметеорологических систем:
- система выпуска высокодетальных прогностических карт явлений погоды для нижнего воздушного пространства по России и ближнему зарубежью;
- система верификации прогнозов TAF (выпускаемых синоптиками официальных АМСГ РФ и ближнего зарубежья) и AUTOTAF (выпускаемых сайтом Метеоцентр.Азия) - выявление ошибок, онлайн-сопоставление с фактической погодой METAR, автоматическое внесение коррективов в прогнозы при резком отклонении фактической погоды от прогноза, подсчёт оправдываемости прогнозов по элементам и в целом;
- система обработки, анализа и отображения авиаметеорологической информации для применения провайдерами метеорологической информации.


Погода Большие Уки - сегодня

Время (UTC), дата Ветер
(°,м/с) 
Видим.   Явления Облачность Т
(°С)
Тd
(°С)
f(%) Тe
(°С)
Pmin
(гПа)
dP
(гПа)
Po
(мм)
O2
(г/м3)
Тmin Tmax R s Состояние
почвы
00 24.04.17 160 (Ю) 20000 м    9/9 600 м 
[Sc]
+3.7 +2.2 90 +5  1006.8  1.4  748  297           
03 24.04.17 240 (ЮЗ) 20000 м    10/10 600 м 
[Sc]
+6.3 +3.5 82 +6  1009.2  2.4  750  295  +3.2      мокрая 
06 24.04.17 290 (З) 20000 м    10/10 600 м 
[Sc]
+7.6 +3.2 74 +7  1012.5  3.4  753  295           
09 24.04.17 280 (З) 20000 м    10/10 600 м 
[Sc]
+11 +1.5 52 +11  1014.7  2.2  754  292           
12 24.04.17 270 (З) 20000 м    10/5 1000 м верхняя 
[Cu med, cong|Ci fib]
+12.5 +0.2 43 +12  1016.2  1.5  756  291           
15 24.04.17 160 (Ю) 10 км    10/0 верхняя 
[Ci]
+7.6 +1.1 63 +9  1017.7  1.3  757  296    +13.4       
18 24.04.17 тихо ()   10 км    9/0 верхняя 
[Ci]
+6.7 +1.4 69 +7  1019.2  1.5  758  298           
21 24.04.17 170 (Ю) 10 км    8/0 верхняя 
[Ci]
+6.2 +2 74 +7  1020.4  1.2  759  299           
00 25.04.17 150 (ЮВ) 20000 м    10/8 600 м верхняя 
[Sc|Ci]
+7.5 +2 68 +7  1019.8  -0.6  758  297           
03 25.04.17 160 (Ю) 20000 м    10/0 средняя 
[As trans]
+10.1 +2.4 59 +9  1018.9  -0.8  758  294  +5.9        влажная 
06 25.04.17 160 (Ю) 6-11{12}  20000 м    10/0 средняя 
[As trans]
+14.4 +2.7 45 +14  1017.4  -1.3  756  289           
12 25.04.17 180 (Ю) 4{15}  20000 м    10/8 600 м средняя 
[Sc|Ac As]
+19.1 +1.8 31 +20  1014.4  -1.3  754  284           
15 25.04.17 170 (Ю) 10 км    10/10 1000 м 
[Sc]
+17.5 +3.1 38 +18  1013.9  -0.5  754  285    +19.8       
18 25.04.17 140 (ЮВ) 10 км    10/10 1000 м 
[Sc]
+12.7 +4.9 59 +14  1015.1  755  290           
21 25.04.17 150 (ЮВ) 10 км    10/10 1000 м 
[Sc]
+11.4 +5.5 67 +13  1014.8  -0.3  755  291           
00 26.04.17 120 (ЮВ) 9000 м  слаб. ливневой дождь  10/3 600 м кучево-дожд., средняя 
[Cb cap|Ac As]
+9.6 +7.1 84 +11  1014.4  -0.5  754  292           
03 26.04.17 130 (ЮВ) 9000 м  слаб. ливневой дождь  10/8 600 м кучево-дожд., средняя 
[Cb cap|Ac As]
+9.8 +7.2 84 +10  1014.2  -0.2  754  292  +9.3      влажная 
06 26.04.17 140 (ЮВ) 10 км    10/10 1000 м 
[Sc]
+12.7 +4.9 59 +14  1015.1  755  290           
09 26.04.17 100 (В) 20000 м  {ливн. осадки}  8/3 600 м средняя, верхняя 
[Cu hum|Ac trans|Ci fib]
+15.4 +7.8 60 +16  1012.5  -1.1  753  286           
12 26.04.17 100 (В) 20000 м  {ливн. осадки}  8/0 средняя, верхняя 
[As op|Ci sp]
+17.8 +7.6 51 +19  1011.5  -0.9  752  283           
15 26.04.17 070 (В) 10 км    10/10 600 м 
[Sc]
+14.4 +7.3 62 +15  1009.2  -2.3  750  286    +17.9     
18 26.04.17 340 (С) 10 км    10/10 600 м 
[Sc]
+12.7 +6.9 68 +14  1007.8  -1.5  749  287           
21 26.04.17 310 (СЗ) 4000 м  слаб. дождь  10/10 300 м 
[Ns]
+10.6 +9.6 94 +13  1007.6  -0.2  749  289           
00 27.04.17 350 (С) 9000 м  слаб. дождь  10/10 300 м 
[Ns]
+10.1 +9.6 97 +12  1007  -0.6  749  289           
03 27.04.17 330 (СЗ) 9000 м  {дождь}  10/10 300 м 
[Ns]
+9.6 +9 96 +9  1009.1  750  290  +9.6      мокрая 
Время (UTC), дата Ветер
(°,м/с) 
Видим.   Явления Облачность Т
(°С)
Тd
(°С)
f(%) Тe
(°С)
Pmin
(гПа)
dP
(гПа)
Po
(мм)
O2
(г/м3)
Тmin Tmax R s Состояние
почвы

Для получения пояснительной информации подведите курсор к названию столбца.

ПОГОДА Большие Уки - архив

Всё, что Вы хотите узнать о погоде Большие Уки - удобно и подробно!

Выберите нужную дату (начиная с 1 января 2015* года) и нажмите кнопку "Найти".
Будут отображены архивные сводки погоды по пункту Большие Уки, начиная с указанной даты.


Отображать данные в формате CSV (для использования в таблицах Excel)


Внимание! Наш архив погоды предназначен исключительно для личного некоммерческого использования в познавательных целях. Если Вам необходимы официальные справки о состоянии погоды (для производственных, юридических, коммерческих и т.п. целей), обращайтесь в органы Росгидромета.

*Примечание: данная дата относится к архиву по метеостанциям СССР (Россия, СНГ, Балтия).
Архив по метеостанциям Зарубежной Европы и Азии (кроме Китая) хранится 10 дней, по другим регионам земного шара (Китай, Африка, Америка, Австралия, Океания) - 1 день.

Большие Уки - район местоположения метеостанции


Название, широта, долгота, высота метеостанции:
Большие Уки 56.9°ш. 72.7°д. 87 м над ур. моря [Российская Федерация]

Дополнительная информация

В oтличие oт бoльшинства пoгoдных сайтoв мы публикуем пoдрoбную метеoинфoрмацию в детальнoм прoфессиoнальнoм фoрмате.

Характеристики температуры и влажнoсти вoздуха измеряются на высoте 2 м в тени вдали oт зданий и деревьев.
Скoрoсть ветра измеряется на высoте 10 м (на урoвне рoста челoвека скoрoсть ветра ниже в 1.5-2 раза). Если метеoстанция нахoдится в гoрoде или в лесу, тo скoрoсть ветра занижена на 2-4 м/с пo сравнению с oткрытым местoм. Скoрoсть ветра над акватoриями крупных рек и oзёр, а также на вершинах хoлмoв на 2-5 м/с выше, чем в oбычных услoвиях.
Атмoсфернoе давление в разных тoчках местнoсти мoжет значительнo oтличаться oт давления на метеoстанции, в зависимoсти oт услoвий рельефа (при пoдъёме на 10 м давление пoнижается примернo на 1 мм рт.ст.).